Miscellaneous Local Product
Issued by NWS North Platte, NE

Home | Current Version | Previous Version | Graphics & Text | Print | Product List | Glossary On
Versions: 1 2 3 4 5 6 7 8 9 10 11 12 13 14 15 16 17 18 19 20 21 22 23 24 25 26 27 28 29 30 31 32 33 34 35 36 37 38 39 40 41 42 43 44 45 46 47 48 49 50
309
AXUS43 KLBF 211910
MISLBF


WESTERN AND NORTH CENTRAL NEBRASKA HOURLY WEATHER ROUNDUP
NATIONAL WEATHER SERVICE NORTH PLATTE NE
200 PM CDT THU JUL 21 2016

NOTE: "FAIR" INDICATES FEW OR NO CLOUDS BELOW 12,000 FEET WITH NO
SIGNIFICANT WEATHER AND/OR OBSTRUCTIONS TO VISIBILITY.

NOTE: STATIONS NOT REPORTING VARIABLES SUCH AS SKY/WEATHER OR
PRESSURE ARE PROVIDED BY RAWS AND APRS NETWORKS AND ARE NOT UNDER
NATIONAL WEATHER SERVICE QUALITY CONTROL.

...OBSERVATIONS IN AND NEAR THE EASTERN PANHANDLE OF NEBRASKA...

CITY           SKY/WX    TMP DP  RH WIND       PRES   REMARKS
PINE RIDGE     CLOUDY    87  72  60 N7        30.09F HX  93
CHADRON        SUNNY     91  65  41 VRB7      30.08S HX  93
ALLIANCE       SUNNY     93  53  25 NW13      30.11S HX  90
SIDNEY         SUNNY     97  49  19 NE8       30.15F HX  94
CRESCENT LAKE    N/A     97  54  23 CALM        N/A  HX  95
$$

...OBSERVATIONS IN NORTHERN NEBRASKA AND FAR SOUTHERN SOUTH DAKOTA...

CITY           SKY/WX    TMP DP  RH WIND       PRES   REMARKS
WINNER         FAIR      97  70  41 E9G21     29.94F HX 103
VALENTINE      SUNNY     96  67  38 N9        29.98S HX 100
THEDFORD       CLOUDY    97  61  29 W6        30.00S HX  98
AINSWORTH      SUNNY     94  71  46 NW5       29.96F HX 100
O`NEILL        CLOUDY    95  62  33 S8        29.93S HX  95
ORD            CLOUDY    89  72  56 S12       29.94F HX  96
BROKEN BOW     CLOUDY    87  71  58 SW8       29.98S HX  93
VALENTINE NWR    N/A     94  69  43 NW9         N/A  HX  99
BUTTE            N/A     92  74  56 NE9         N/A  HX 102
HALSEY           N/A     88  69  53 S5G13       N/A  HX  92
EWING            N/A     84  76  76 CALM        N/A  HX  92
$$

...OBSERVATIONS IN SOUTHWEST NEBRASKA AND FAR NORTHEAST COLORADO...

CITY           SKY/WX    TMP DP  RH WIND       PRES   REMARKS
WRAY           FAIR      97  46  17 W5        30.09F HX  93
HOLYOKE        FAIR      95  57  28 NW5       30.10F HX  94
IMPERIAL       SUNNY     95  56  26 NW8       30.05F HX  93
OGALLALA       SUNNY     95  58  29 CALM      30.05S HX  94
NORTH PLATTE   MOSUNNY   92  68  45 VRB3      30.00F HX  96
MCCOOK         SUNNY     98  62  30 E8        29.99F HX  99
LEXINGTON      PTSUNNY   91  71  52 S5        29.99S HX  98
STAPLETON        N/A     92  72  51 CALM        N/A  HX  99
GOTHENBURG       N/A     90  64  42 SE3         N/A  HX  91
CALLAWAY         N/A     90  76  63 S7          N/A  HX 101
$$

...OBSERVATIONS IN CENTRAL LINCOLN COUNTY AREA...

CITY           SKY/WX    TMP DP  RH WIND       PRES   REMARKS
N.P. AIRPORT   MOSUNNY   92  68  45 VRB3      30.00F HX  96
N.P. DOWNTOWN    N/A     92  67  44 CALM        N/A  HX  95
N.P. HILLCREST   N/A     90  69  50 W3          N/A  HX  94
$$

...SOME OBSERVATIONS FROM AROUND THE REGION...

CITY           SKY/WX    TMP DP  RH WIND       PRES   REMARKS
DENVER         MOSUNNY   91  42  18 CALM      30.25F
LARAMIE        SUNNY     85  29  13 N13G23    30.40F
CHEYENNE       SUNNY     89  39  17 N16G24    30.30F
SCOTTSBLUFF    CLOUDY    94  52  24 VRB5      30.12F HX  91
RAPID CITY     SUNNY     92  67  43 E12       30.09S HX  95
BISMARCK       SUNNY     88  61  40 SE7       30.02S
PIERRE         CLOUDY    94  72  48 E16       29.93S HX 102
SIOUX FALLS    MOSUNNY   91  76  61 VRB7      29.92R HX 103
OMAHA          MOSUNNY   95  75  52 S15G23    29.92F HX 107
GRAND ISLAND   SUNNY     96  73  47 SW10      29.96F HX 105
KANSAS CITY    MOSUNNY   94  75  54 S17G26    30.03F HX 105
WICHITA        SUNNY    101  69  35 S13       30.02F HX 107
OKLAHOMA CITY  MOSUNNY   96  68  39 SW15      30.10F HX 101
DALLAS         MOSUNNY   97  67  37 SE10G20   30.11F HX 101
AMARILLO       SUNNY     96  59  29 S17       30.18F HX  95
DODGE CITY     SUNNY     97  62  31 SW17G25   30.04F HX  98
HAYS           SUNNY     90  64  43 S17G24    29.98S HX  91
GOODLAND       SUNNY     99  52  20 N7        30.08F HX  96
$$




USA.gov is the U.S. government's official web portal to all federal, state and local government web resources and services.